Content
SEND FEEDBACK

Daily
Averages
Monthly
Summary
Mexico

CANCUN, QUINTANA ROO


Home > North America > Mexico > Quintana Roo
Elevation: 30 feet     Latitude: 21 09N     Longitude: 086 49W

WEATHER
 
SELECT A DAY
Number of Records: 166,321;   Date Range: 1/1/95 - 10/19/14
 
SHARE

PRINT THIS DATA

[ ← Previous Day ]
WEATHER ALMANAC - AUGUST 28, 2013
[ Next Day → ]
[ °C ]   °F
Weather ElementAverageHighLow
Temperature79.3 °F87.8 °F (1:41 pm)73.4 °F (5:42 am)
Dewpoint74.6 °F77 °F (8:45 am)71.6 °F (6:41 am)
Humidity86.2 %100 % (5:42 am)66 % (11:43 am)
Barometer29.97 in30.01 in (10:02 am)29.93 in (2:41 am)
Wind Speed3.5 mph12.7 mph (11:43 am)
Weather ElementAverage
Visibility6.6 mi
Wind DirectionESE (97.1 °)

Weather ElementTotal
Precipitation---
Cooling Degree Days15.6 (Base 65)
Growing Degree Days30.6 (Base 50)
Averaged from 24 records on August 28, 2013
WEATHER CONDITIONS BREAKOUT
WIND DIRECTION BREAKOUT
WEATHER BY HOUR - AUGUST 28, 2013
[ °C ]   °F
Local TimeTemperatureDewpointHumidityBarometerVisibilityWind DirectionWind SpeedGust SpeedPrecipitationEventsConditions
1:41 AM78.8 °F75.2 °F89 %29.95 in7.0 miENE (70°)2.3 mphScattered Clouds
2:41 AM77.0 °F75.2 °F94 %29.93 in7.0 miCalmScattered Clouds
3:42 AM75.2 °F73.4 °F94 %29.94 in7.0 miCalmScattered Clouds
4:42 AM75.2 °F73.4 °F94 %29.93 in7.0 miCalmScattered Clouds
5:42 AM73.4 °F73.4 °F100 %29.94 in7.0 miWNW (290°)2.3 mphScattered Clouds
6:41 AM73.4 °F71.6 °F94 %29.95 in7.0 miNW (310°)3.5 mphMostly Cloudy
7:40 AM77.0 °F73.4 °F89 %29.98 in7.0 miCalmScattered Clouds
8:45 AM78.8 °F77.0 °F94 %29.99 in7.0 miCalmMostly Cloudy
10:02 AM80.6 °F71.6 °F74 %30.01 in7.0 miSE (130°)4.6 mphMostly Cloudy
10:50 AM86.0 °F75.2 °F70 %30.00 in7.0 miEast (100°)8.1 mphMostly Cloudy
11:43 AM86.0 °F73.4 °F66 %29.99 in7.0 miEast (80°)12.7 mphMostly Cloudy
12:43 PM86.0 °F75.2 °F70 %29.99 in7.0 miESE (110°)11.5 mphMostly Cloudy
1:41 PM87.8 °F75.2 °F66 %29.98 in7.0 miESE (110°)8.1 mphMostly Cloudy
2:40 PM86.0 °F75.2 °F70 %29.97 in7.0 miNNW (330°)8.1 mphMostly Cloudy
3:42 PM78.8 °F75.2 °F89 %29.97 in7.0 miNNW (330°)5.8 mphMostly Cloudy
4:41 PM82.4 °F77.0 °F84 %29.94 in7.0 miNE (50°)3.5 mphMostly Cloudy
5:42 PM82.4 °F77.0 °F84 %29.94 in7.0 miCalmOvercast
6:04 PM78.8 °F75.2 °F89 %29.95 in3.0 miNE (40°)5.8 mphRainRain
6:41 PM80.6 °F77.0 °F89 %29.96 in6.0 miENE (60°)2.3 mphOvercast
7:42 PM77.0 °F75.2 °F94 %29.98 in6.0 miNW (320°)4.6 mphOvercast
8:40 PM75.2 °F73.4 °F94 %29.99 in6.0 miCalmOvercast
9:46 PM75.2 °F73.4 °F94 %29.99 in6.0 miCalmMostly Cloudy
10:45 PM77.0 °F75.2 °F94 %30.01 in6.0 miCalmMostly Cloudy
11:40 PM75.2 °F73.4 °F94 %30.01 in6.0 miCalmMostly Cloudy
Hourly data recorded from MMUN, located miles away from Cancun, Quintana Roo







STORIES FROM OUR PARTNERS